Theta_e
319 320 323 325 326 325 324 324 325 325 327 327 326 326 326 326 326 324 326 326 325 325 324 324 323 325 326 326 328 327 327 327 326 323 323 328 324 323 327 327 327 328 328 327 326 322 321 317 321 328 331 332 333 333 332 333 336 337 339 340 338 337 338
322 321 321 323 323 325 324 323 324 324 326 327 326 326 326 325 325 325 325 323 322 321 320 321 323 324 325 325 325 326 325 325 324 324 322 321 321 320 322 323 323 323 324 327 327 325 320 318 317 319 322 330 329 331 333 335 334 336 337 337 336 336 338
320 320 321 321 323 324 323 324 323 323 324 325 326 325 324 322 320 319 318 318 319 317 317 317 319 320 321 321 323 323 324 324 325 324 322 321 321 321 320 321 319 318 320 320 322 321 322 323 315 315 320 320 319 325 331 331 332 333 333 334 336 335 336
320 320 320 322 322 323 322 323 322 322 324 323 323 324 322 319 319 319 319 318 319 318 317 317 318 317 319 320 320 321 322 322 321 321 321 321 320 320 321 319 318 318 317 316 317 317 318 317 315 315 317 317 317 318 323 327 330 329 329 330 331 332 334
323 320 321 321 322 322 323 321 322 321 323 323 323 320 320 320 320 320 320 319 318 318 318 318 318 318 319 319 319 319 319 319 320 320 320 319 319 319 319 319 318 318 318 316 316 317 317 317 316 314 313 314 316 317 320 326 327 326 325 324 326 329 332
324 321 320 321 322 321 322 321 321 319 321 321 321 320 320 321 321 321 321 318 318 318 318 317 318 318 318 317 318 319 319 318 318 319 317 318 318 318 316 317 316 317 317 317 317 317 317 317 316 313 314 315 313 314 315 315 315 318 320 323 325 326 327
326 324 321 322 323 321 322 322 321 320 320 322 321 321 320 320 320 322 322 320 319 318 318 318 318 318 319 316 317 317 317 318 318 318 317 317 317 316 317 314 315 314 315 316 316 315 315 314 313 313 313 313 314 311 313 313 315 314 318 322 325 327 327
327 324 322 322 324 322 322 323 321 321 320 322 322 323 321 320 321 322 322 320 319 319 318 318 317 318 318 317 317 318 318 318 317 317 317 317 315 314 315 315 314 315 313 313 314 313 312 314 313 313 312 308 309 311 312 313 314 314 314 318 319 319 325
327 326 324 323 324 324 324 323 322 322 322 322 324 324 322 322 322 322 321 321 320 319 319 318 318 317 317 316 316 317 317 317 317 317 316 316 316 315 315 314 314 312 314 313 313 314 312 313 313 313 313 311 307 304 309 310 312 312 317 316 320 322 324
329 327 326 327 327 327 326 324 322 323 323 324 324 326 323 323 323 322 322 321 321 319 319 318 317 317 317 317 317 316 317 317 317 316 316 315 315 315 314 314 313 314 313 315 313 314 314 314 313 313 312 311 311 308 305 306 309 310 314 317 316 319 320
329 329 328 329 329 327 326 324 323 323 323 325 326 326 325 323 323 322 322 321 321 319 318 317 317 316 317 316 316 316 315 316 315 315 314 314 314 314 313 313 314 313 313 314 313 313 314 314 312 313 312 313 312 309 308 306 307 312 312 316 315 314 321
329 329 329 329 329 327 325 324 324 324 325 325 325 325 324 323 323 322 322 321 320 319 318 317 317 317 317 316 316 315 316 316 314 313 313 313 312 313 312 311 312 312 312 314 314 314 314 313 313 313 312 313 312 312 311 309 306 311 315 312 315 318 317
327 327 329 329 328 327 325 324 324 324 325 324 324 324 323 323 323 322 321 321 320 319 318 317 317 317 317 316 315 314 314 314 313 313 312 312 310 312 312 311 310 310 310 310 312 312 311 312 313 311 312 312 312 312 311 309 308 308 313 313 314 315 315
327 327 328 329 328 327 326 326 325 325 325 324 323 323 322 322 322 322 321 320 319 319 318 317 317 317 316 315 314 314 313 312 311 311 312 311 311 311 309 309 309 310 311 310 311 311 310 310 310 310 311 311 310 311 310 309 307 308 312 315 315 314 316
327 327 328 328 328 326 326 325 327 325 325 324 323 322 321 322 322 322 321 320 319 318 317 316 316 316 314 314 314 313 313 311 311 310 311 309 310 310 311 309 308 309 309 307 310 308 309 308 308 308 309 310 308 310 312 309 307 306 306 311 311 314 313
325 326 326 326 327 326 326 326 326 325 324 324 323 323 321 322 322 322 321 320 319 318 317 316 316 315 314 313 312 313 313 312 311 311 310 309 308 309 309 309 309 310 310 309 309 310 311 309 309 308 309 309 308 309 309 309 306 305 305 306 310 309 310
325 325 325 325 326 327 326 326 326 325 324 324 323 324 323 322 322 321 320 320 319 318 317 316 315 315 314 313 312 311 311 312 311 310 309 309 307 308 308 307 308 308 309 308 309 308 308 309 309 308 309 309 310 309 310 310 309 307 306 304 308 307 309
324 325 324 325 326 326 326 326 326 324 324 323 324 324 322 323 322 321 320 319 319 318 317 316 315 314 314 313 312 312 311 311 311 310 309 309 307 308 306 307 306 307 307 307 308 308 308 308 307 307 307 307 306 307 309 309 309 309 307 306 307 309 310
323 324 325 325 326 326 325 325 325 325 323 322 323 324 323 323 322 320 320 320 319 317 317 316 315 314 313 313 313 312 311 311 310 309 308 307 306 306 306 305 305 306 306 306 306 307 308 307 307 307 307 306 306 307 307 308 308 307 307 306 307 307 309
324 325 324 325 326 326 325 325 324 324 324 323 323 323 323 322 322 320 320 319 318 317 316 316 315 314 313 312 312 311 311 310 309 308 306 305 305 305 304 304 305 305 304 305 305 305 306 307 307 307 307 307 307 307 306 306 306 306 305 305 305 306 306
323 325 324 325 324 325 324 324 324 325 324 323 322 322 322 322 321 319 319 319 318 318 316 315 315 314 313 312 312 311 311 309 307 307 306 305 305 304 304 304 304 303 303 304 304 304 304 304 304 305 306 307 307 306 305 305 305 304 304 304 303 304 305
317 320 322 323 324 324 324 324 324 323 323 323 323 322 323 322 320 319 319 319 317 316 316 315 314 313 313 312 312 310 308 306 306 305 305 304 304 304 304 304 303 303 302 299 299 298 298 299 299 299 302 303 303 304 305 305 304 303 303 303 303 305 304
314 315 317 319 321 323 323 323 323 323 323 323 323 322 322 322 320 317 316 315 315 315 315 314 310 303 306 311 310 308 307 306 305 304 303 303 303 303 303 303 304 299 300 299 298 296 294 295 296 299 300 301 301 302 302 302 302 303 303 301 302 302 302
315 314 315 316 318 319 321 323 323 322 322 323 322 322 321 319 319 317 316 315 315 315 314 311 296 295 295 299 307 307 306 305 304 303 303 302 302 302 303 302 303 302 302 300 301 294 293 293 294 294 294 295 296 298 298 298 299 301 300 301 302 302 302
311 313 316 316 316 317 319 321 322 322 321 321 321 322 320 320 319 318 317 315 315 313 313 299 293 293 294 295 299 306 305 305 303 303 302 302 301 301 302 302 302 303 303 302 300 299 298 294 293 293 292 292 292 292 293 297 297 298 300 299 300 301 302
309 311 313 315 317 318 318 319 320 321 321 322 321 320 319 317 317 317 317 315 314 313 310 294 293 293 293 293 293 299 304 304 302 302 302 301 301 301 301 301 301 301 302 301 299 301 301 302 296 292 292 293 292 292 291 290 291 297 298 298 298 299 300
309 310 312 314 316 316 317 317 319 320 320 320 320 320 319 318 317 316 315 314 313 312 304 294 292 292 292 291 290 295 303 302 301 301 300 301 301 301 301 301 300 300 301 301 301 301 301 301 301 301 301 301 301 299 293 290 290 291 294 297 297 296 299
309 310 311 312 314 315 315 316 317 318 318 318 318 318 318 317 317 315 314 312 310 307 301 292 292 291 291 291 289 293 302 301 301 301 302 302 301 301 301 301 301 300 300 300 300 299 298 298 299 299 299 299 300 301 302 302 301 300 298 298 298 298 299
309 310 311 312 313 314 315 316 316 317 317 316 318 319 318 317 315 313 312 311 308 302 298 291 291 291 291 290 289 300 301 301 301 301 301 301 301 301 301 301 301 300 300 299 296 292 294 297 297 297 297 298 299 300 300 298 296 296 299 300 301 300 301
308 309 311 311 311 313 315 315 316 316 316 315 315 316 317 316 314 312 309 307 302 298 296 293 290 290 290 289 292 300 301 300 300 300 301 301 301 301 301 301 301 299 298 298 294 290 290 291 296 296 296 296 297 297 298 299 296 293 292 292 291 291 291
308 309 310 310 312 313 315 316 316 316 315 314 314 315 314 313 311 309 306 303 301 298 297 294 290 290 290 289 294 299 299 299 299 300 300 301 302 301 301 299 298 298 298 298 292 289 289 292 295 295 295 294 294 295 296 298 299 299 293 291 291 291 291
309 309 309 311 312 313 314 315 315 315 314 315 314 314 312 310 307 305 304 301 298 297 296 294 290 290 290 289 295 300 299 298 298 299 300 300 301 301 300 299 297 297 297 296 290 289 289 291 294 294 294 293 292 293 295 297 296 296 297 297 297 296 295
309 310 310 311 312 313 314 314 314 313 314 314 313 311 308 307 304 302 302 300 299 298 296 295 294 289 290 290 290 298 298 297 297 298 299 298 298 298 298 299 297 291 290 289 288 288 288 288 292 293 293 291 291 291 295 295 295 295 295 294 295 295 295
309 310 311 312 313 313 313 312 312 313 311 310 308 306 304 303 301 300 301 301 300 300 299 297 295 289 290 290 287 290 297 298 298 298 297 296 296 296 296 297 299 294 288 288 288 288 288 288 288 291 291 290 291 292 291 291 292 290 291 292 292 292 292
310 311 311 311 311 311 312 312 311 310 307 304 303 302 302 301 301 300 300 299 299 300 300 298 296 290 290 289 289 288 295 298 296 295 294 295 295 296 296 297 299 294 287 288 287 287 287 287 287 290 290 288 288 287 289 290 290 290 290 290 290 290 291
309 310 310 311 311 310 310 309 308 306 305 303 302 301 301 300 299 298 298 299 300 300 299 297 293 295 289 290 288 289 288 292 290 294 295 294 295 296 298 298 298 291 287 287 287 287 287 287 288 289 287 287 287 287 288 289 289 289 289 289 289 289 290
308 309 309 309 309 308 306 305 304 303 302 301 301 300 300 299 298 297 296 297 298 298 299 299 292 291 293 287 289 288 287 287 288 294 295 295 296 296 297 297 294 288 287 287 287 287 288 288 289 287 287 287 287 287 289 289 288 288 288 288 288 288 288
Wind_Speed
5 6 6 5 4 5 5 5 4 4 4 4 4 5 5 5 5 5 4 4 3 4 3 4 3 4 4 4 4 3 3 2 2 3 3 3 2 2 2 2 2 3 3 3 3 3 5 5 2 5 3 2 2 4 4 5 3 3 2 4 6 6 6
5 6 6 6 5 5 6 4 4 5 5 4 4 5 5 6 5 5 5 4 4 4 4 5 5 5 6 5 4 4 4 3 3 2 0 3 2 3 1 1 2 2 3 3 2 2 4 5 5 3 4 3 4 3 4 3 5 5 5 5 6 7 6
6 5 5 6 6 5 6 5 5 5 5 5 4 4 5 6 6 7 6 6 5 5 5 6 6 6 6 6 5 5 5 5 4 4 3 2 1 2 1 1 3 1 4 4 4 3 3 4 6 5 5 6 6 3 3 5 6 7 6 6 7 8 8
8 7 6 6 6 6 6 6 5 5 5 5 5 5 6 7 7 6 6 6 5 5 5 5 5 5 6 6 6 6 5 5 5 5 4 3 3 2 1 1 1 2 3 3 4 3 4 5 5 5 6 6 6 6 6 6 5 6 7 7 7 7 7
9 7 7 7 7 7 6 6 5 5 5 5 5 6 6 6 6 6 6 6 5 5 5 5 5 5 5 5 5 5 5 5 5 4 4 4 3 3 2 2 2 2 0 1 2 3 4 4 4 5 6 6 6 5 5 3 5 6 8 8 7 7 6
9 8 7 7 7 6 6 6 6 6 6 6 6 6 7 7 6 6 6 5 5 5 5 5 5 5 5 5 6 6 5 5 4 4 4 4 3 2 3 2 1 1 1 1 2 2 3 3 4 6 6 6 7 6 6 7 6 6 7 6 7 7 7
8 8 7 7 7 6 6 6 6 6 6 6 7 7 7 7 5 5 5 6 6 6 6 5 5 5 5 5 6 6 6 5 5 6 5 5 4 3 2 2 1 1 1 0 1 2 3 3 3 4 6 6 7 8 7 7 6 6 4 6 5 5 4
7 8 8 7 7 7 6 7 6 6 5 6 7 7 9 7 6 6 6 6 7 7 6 6 5 5 4 4 5 5 4 4 4 4 4 4 3 3 2 1 2 1 0 1 1 2 3 3 4 4 4 6 6 6 7 6 7 7 6 6 7 6 5
7 7 7 7 7 7 7 7 7 7 6 6 7 8 9 8 7 7 7 7 7 7 6 6 6 5 5 4 4 4 4 3 4 4 4 3 3 3 2 1 1 1 0 0 2 1 2 2 4 4 4 4 6 7 6 6 6 5 5 5 4 3 3
9 9 7 9 9 8 8 8 7 8 7 7 7 8 9 8 8 8 7 7 7 6 6 6 6 6 5 4 5 5 5 4 4 3 2 3 3 1 2 1 2 1 1 1 2 2 2 2 3 4 5 5 4 6 6 6 5 5 4 3 4 4 6
9 9 8 8 8 8 8 8 7 8 8 8 8 8 9 10 9 9 8 8 7 7 6 6 6 6 5 5 5 4 4 4 4 4 3 3 2 2 1 1 1 1 2 2 1 2 3 3 3 4 4 4 5 6 6 7 7 5 6 5 5 5 3
9 8 8 8 8 9 10 9 9 8 8 9 9 9 10 10 9 9 8 8 7 7 7 6 6 6 5 5 5 5 5 4 4 4 3 3 2 2 2 1 1 1 1 1 2 2 2 3 3 4 4 4 5 6 7 7 8 4 3 5 5 5 7
9 9 8 8 8 9 10 10 10 10 10 9 10 11 10 11 11 10 9 9 9 8 8 7 7 6 6 5 5 5 5 5 5 5 4 3 2 2 1 1 1 2 2 3 2 2 3 3 3 5 4 5 5 5 6 7 9 9 6 7 7 8 9
10 9 9 8 8 8 8 9 9 10 10 10 10 11 11 12 12 11 11 10 10 9 9 8 6 6 5 6 5 5 6 6 5 4 4 5 4 2 1 0 1 0 1 3 3 3 3 3 4 4 5 5 5 5 6 8 9 9 7 6 6 7 7
9 8 9 9 9 8 8 9 9 9 10 11 11 12 13 11 11 12 11 11 10 10 9 9 8 7 6 7 6 5 5 5 5 4 3 3 3 2 2 1 0 0 1 3 3 6 4 3 4 5 4 4 6 6 5 7 9 9 10 7 7 7 8
10 10 10 9 9 9 9 9 9 10 10 10 11 12 13 12 12 12 12 11 11 10 10 9 8 8 7 8 7 7 6 6 5 5 4 3 2 2 2 1 1 0 1 2 3 4 4 5 5 5 5 5 6 7 7 7 8 9 10 9 8 9 8
9 10 10 10 10 10 9 8 8 9 10 9 11 11 13 14 13 13 12 12 11 10 10 9 9 8 8 8 7 8 7 6 5 5 4 3 2 2 1 1 1 1 2 3 3 3 4 4 4 5 6 6 7 7 7 7 9 9 9 10 8 9 8
8 9 11 10 10 10 9 9 8 9 9 10 10 10 11 12 13 14 12 13 12 12 11 11 10 9 8 8 8 7 7 7 6 5 4 3 3 2 1 2 2 2 2 4 4 4 4 5 6 6 6 7 7 7 6 7 8 9 10 11 10 9 9
7 8 10 12 12 9 9 10 10 9 10 11 10 10 12 12 12 14 14 14 14 13 12 11 10 10 9 8 8 7 7 6 6 5 4 3 2 2 2 1 1 2 2 4 4 4 5 6 6 7 8 8 8 8 8 9 9 10 11 11 10 10 8
6 8 10 11 11 9 9 10 11 11 10 11 11 11 11 13 11 12 12 12 13 13 13 12 11 10 10 9 8 7 6 6 5 4 3 3 2 2 2 1 1 2 3 3 4 5 5 6 6 8 8 8 8 8 9 9 9 10 11 11 11 10 10
5 7 9 10 10 10 11 12 12 11 10 11 11 12 12 13 11 12 12 12 12 11 11 11 11 10 9 9 8 7 6 5 5 4 3 3 2 2 2 2 2 1 1 2 4 5 6 6 7 8 7 7 8 9 9 9 10 10 10 11 11 10 9
5 6 6 7 9 10 11 11 12 12 11 10 9 11 11 12 13 14 12 12 12 11 11 11 10 10 9 9 8 7 6 5 4 3 3 3 2 2 2 1 2 2 1 3 4 6 8 7 7 8 8 8 9 9 10 9 10 10 11 11 11 10 10
6 6 6 6 6 7 8 10 10 11 12 12 11 10 11 12 12 13 13 13 12 12 10 9 9 13 10 9 9 7 6 5 4 3 2 2 2 2 2 3 2 3 4 8 9 10 11 12 12 10 9 8 9 9 10 10 10 10 11 11 11 11 11
5 7 6 6 6 6 7 7 9 10 11 11 11 11 11 13 13 13 14 13 13 11 10 7 14 12 10 7 7 7 6 5 4 3 3 2 2 2 3 3 5 4 8 11 12 15 14 13 13 14 15 14 13 11 11 11 11 11 11 12 11 12 12
7 6 6 7 7 7 6 7 7 8 10 11 10 10 11 12 12 13 12 14 13 11 9 13 15 14 12 8 4 6 5 4 3 3 3 2 2 2 3 4 4 4 5 5 7 8 9 14 15 15 15 15 15 16 16 14 12 11 12 12 12 13 13
7 7 7 7 6 6 7 7 7 8 8 9 9 10 12 12 12 13 13 14 12 11 9 15 15 14 12 9 5 3 5 4 3 3 2 3 3 4 4 5 5 5 5 3 7 7 8 8 9 15 16 16 17 17 17 18 19 16 14 14 14 15 13
7 7 7 7 7 7 7 8 7 7 7 8 10 10 11 12 12 14 13 13 12 11 12 14 16 14 12 10 8 4 3 4 3 3 4 4 4 5 5 6 6 7 7 7 7 8 8 8 9 9 8 9 10 14 20 21 20 21 20 16 16 16 14
8 7 7 8 8 8 8 8 8 8 8 9 10 10 11 12 12 13 12 11 11 11 10 16 15 14 12 10 8 5 4 4 4 4 4 5 5 6 6 6 7 8 8 8 7 8 10 10 10 9 10 11 11 12 11 11 13 14 15 15 16 16 16
8 8 8 8 8 8 8 8 8 8 8 8 9 9 10 10 11 13 12 11 10 12 11 16 15 14 13 11 10 5 5 4 4 4 4 5 6 6 7 7 8 8 8 9 10 3 4 8 11 12 12 12 12 12 11 11 13 10 12 12 12 13 13
8 8 8 9 9 8 8 8 8 8 8 9 9 10 10 10 11 11 12 11 11 11 11 12 14 14 13 12 9 4 3 4 4 4 5 5 6 7 7 8 8 8 10 10 7 5 3 3 10 12 13 13 12 12 12 11 13 13 15 16 16 18 19
10 9 9 9 9 8 8 7 8 7 8 9 10 10 9 9 9 9 11 11 12 13 11 11 14 13 12 13 7 3 3 4 4 5 6 6 6 7 8 7 9 11 10 10 3 4 2 6 10 12 14 15 15 14 14 12 11 10 12 15 17 18 17
10 10 10 9 9 9 8 8 7 7 8 9 9 8 9 8 8 7 8 10 12 12 10 9 11 11 11 10 6 3 3 4 5 6 6 7 7 7 9 9 10 11 11 10 6 5 3 6 10 13 15 15 15 16 14 15 14 14 14 13 12 12 13
10 10 11 10 9 9 8 8 8 8 8 8 7 7 7 8 9 7 9 11 9 9 9 9 10 11 10 9 5 4 3 5 5 6 6 7 8 9 10 10 9 9 9 3 2 2 4 6 9 13 14 14 15 16 13 14 14 13 15 14 15 15 16
11 11 10 10 9 9 8 8 8 7 7 5 5 6 8 8 9 8 8 7 6 6 7 9 9 10 8 6 3 2 3 4 5 5 7 9 9 10 10 10 9 3 10 6 6 4 6 7 8 13 15 16 16 15 15 15 16 17 16 15 16 16 15
11 10 10 10 10 9 9 7 5 7 6 7 8 8 9 9 9 9 8 7 6 6 5 7 10 8 9 6 5 3 4 2 4 6 8 9 10 10 10 10 10 6 10 8 7 9 10 12 14 15 17 19 18 17 17 17 16 15 14 13 13 14 14
11 9 10 10 11 11 7 6 6 7 7 9 10 10 9 9 9 8 7 6 6 6 7 7 8 8 9 8 7 6 2 4 2 5 7 9 10 10 10 10 8 9 15 15 15 15 17 18 17 16 18 16 17 16 15 15 15 15 14 14 14 14 14
12 12 12 11 10 7 6 6 7 6 8 8 9 9 7 8 9 8 7 6 5 5 5 6 4 5 7 7 6 6 6 6 6 6 7 8 9 9 9 9 10 17 17 17 18 17 17 18 16 19 19 20 20 18 14 15 14 14 14 14 14 14 14
Wind_Direction
151 133 141 135 124 126 126 133 131 130 127 112 109 104 108 104 107 110 108 105 106 107 111 101 97 84 86 82 69 68 46 46 120 100 41 24 27 65 54 354 3 327 287 284 268 267 278 282 299 282 236 176 327 294 301 281 285 294 263 261 256 232 226
144 142 149 146 143 136 134 130 128 122 116 111 103 107 102 105 105 96 96 94 86 92 101 98 90 85 76 71 75 69 65 69 54 56 145 73 49 21 328 183 274 266 264 223 291 299 298 288 262 254 275 220 269 244 246 284 287 286 280 272 274 287 277
157 150 161 149 151 154 141 138 136 139 131 128 121 109 114 111 107 109 105 99 93 77 73 85 94 94 90 88 79 79 83 88 78 63 52 81 120 120 270 312 281 283 282 273 239 289 285 276 283 286 286 281 278 258 237 254 254 260 268 264 260 257 260
165 164 166 162 160 167 155 152 152 140 144 134 130 124 120 121 119 112 110 109 105 104 103 107 101 102 102 100 94 91 85 87 91 94 88 77 81 82 23 22 29 11 343 328 331 316 302 281 271 264 271 278 281 285 271 252 256 258 252 246 254 253 258
170 172 180 174 172 172 165 160 154 150 149 145 146 136 137 133 130 123 121 119 116 117 113 108 114 110 111 110 109 106 102 98 101 98 96 99 99 97 81 57 49 10 30 318 3 307 296 305 307 290 279 282 283 272 294 301 273 270 265 258 250 248 236
181 180 182 181 180 181 175 173 164 167 159 162 161 154 148 152 142 141 140 129 124 122 116 114 108 112 112 111 109 113 111 109 103 106 104 96 87 76 99 101 64 117 54 26 312 296 291 295 285 286 288 303 296 294 278 269 263 255 259 251 240 229 236
188 184 188 188 184 193 183 177 181 177 173 173 166 165 158 164 159 147 139 130 125 126 126 120 118 121 122 120 121 114 113 108 110 113 112 113 108 109 119 116 103 116 113 232 306 291 298 293 294 308 310 302 302 294 295 284 274 271 243 242 237 258 267
195 190 194 193 188 193 190 180 188 184 181 177 172 165 163 170 157 150 142 139 138 133 132 130 126 123 122 115 112 112 106 107 111 105 102 104 108 108 104 122 148 151 201 153 232 265 283 287 289 299 307 308 301 292 294 294 300 288 291 286 293 273 265
205 200 197 194 188 191 191 189 187 187 189 176 171 163 170 171 164 156 155 150 147 145 141 141 143 132 129 125 117 117 110 112 115 115 108 102 86 81 76 91 216 87 307 300 261 222 278 294 287 274 268 273 291 297 299 297 296 295 313 304 304 290 290
207 207 201 186 183 184 190 195 195 189 183 179 170 167 172 173 172 168 163 157 157 154 151 148 144 138 143 135 125 129 128 127 124 109 98 101 107 98 69 12 352 85 63 313 297 297 278 270 275 288 280 278 283 280 287 290 285 291 293 335 316 336 334
214 211 210 194 186 185 189 194 197 190 185 178 172 170 174 174 175 175 170 167 164 161 158 153 149 146 148 132 132 134 122 126 129 123 115 106 98 87 83 31 352 46 32 311 359 310 289 289 279 270 274 274 268 269 277 283 284 283 281 280 264 277 301
219 220 212 205 196 194 191 194 193 194 185 180 175 173 178 177 179 179 178 174 169 167 165 160 157 158 156 140 146 138 145 152 129 120 106 98 94 96 86 89 351 80 348 263 267 238 267 260 264 262 258 259 267 270 279 277 280 261 275 288 294 296 304
221 222 219 209 205 203 199 194 192 191 189 186 183 178 183 183 182 182 182 179 176 174 171 167 173 160 165 155 158 147 140 149 142 140 136 133 125 122 138 146 22 347 350 295 243 276 273 256 275 284 274 267 264 263 270 273 271 278 289 291 295 291 283
229 227 225 219 220 214 207 202 198 193 188 191 186 185 188 188 187 186 184 183 182 179 175 174 174 172 170 162 154 143 151 153 152 140 140 146 145 141 106 160 185 214 275 295 306 285 266 287 273 260 267 267 265 259 260 268 274 280 281 278 280 284 291
241 237 231 224 221 221 213 209 202 196 195 192 190 191 193 190 191 189 189 188 186 184 182 179 178 181 175 164 156 155 159 159 152 139 149 145 140 158 176 245 305 147 268 291 283 288 280 265 267 261 249 256 271 274 263 276 279 284 288 289 283 286 289
241 239 237 235 230 225 220 214 206 202 200 196 195 195 196 192 192 192 191 191 189 188 187 181 181 183 176 175 169 166 166 162 160 160 166 159 175 123 202 238 259 233 228 262 271 270 278 269 277 285 280 277 276 274 276 272 281 282 285 287 290 286 281
253 249 242 240 237 230 226 220 212 212 211 205 199 199 198 195 192 194 194 193 191 188 187 182 182 185 182 181 174 169 168 166 169 172 171 178 169 207 228 260 256 273 282 282 284 294 279 278 273 281 283 269 259 260 262 265 262 273 281 284 285 284 287
256 259 266 261 246 235 229 227 222 218 216 215 210 200 200 198 195 194 194 195 192 189 189 185 185 183 179 179 177 169 173 169 173 175 175 180 189 225 232 251 283 301 285 291 284 278 296 296 292 288 287 286 281 279 273 265 269 269 274 277 281 280 279
259 261 258 260 254 241 243 237 229 222 218 219 215 208 202 198 199 197 194 194 192 190 189 187 187 183 177 176 173 174 173 173 174 178 173 199 190 186 223 245 268 280 294 285 289 292 292 290 289 283 282 287 292 295 289 284 279 276 276 276 277 281 273
275 264 250 248 250 247 236 242 239 232 222 218 217 211 206 204 197 201 197 196 194 190 187 185 184 181 175 174 175 174 176 175 177 169 182 181 178 185 214 214 242 251 268 284 286 287 288 287 279 278 275 275 277 277 278 277 276 277 278 280 280 277 280
297 272 266 261 258 257 256 253 249 247 239 226 220 216 211 204 188 190 197 197 195 190 187 184 183 174 176 173 174 177 175 179 175 167 169 177 164 192 191 210 220 241 258 293 308 302 297 284 288 283 279 277 275 274 274 274 273 272 272 272 273 278 277
294 281 267 263 260 254 249 250 252 249 246 239 228 222 217 198 183 192 193 194 188 184 190 185 176 168 169 177 174 172 174 172 170 172 178 172 190 207 233 219 236 221 32 329 309 284 280 289 284 277 275 277 273 271 269 268 271 271 271 270 273 272 271
289 292 286 275 265 257 255 252 249 249 248 244 237 223 214 201 192 186 189 191 186 184 181 180 151 159 167 173 171 160 161 169 178 176 192 207 217 237 259 272 252 178 216 227 232 229 231 238 241 254 274 280 278 274 271 271 270 269 271 273 272 275 274
292 292 299 292 282 272 259 248 247 247 246 242 237 235 221 209 202 197 193 185 183 176 167 145 131 126 123 142 159 158 164 164 170 192 204 220 265 266 270 280 296 218 209 220 222 218 230 235 230 235 241 248 261 271 276 274 270 270 273 274 275 272 270
302 301 293 290 289 282 271 256 246 239 242 239 233 234 225 217 203 199 193 193 181 168 168 128 130 124 125 129 148 157 162 167 179 204 207 235 255 273 284 287 284 290 281 291 304 287 243 218 221 227 228 234 237 242 249 258 266 268 268 270 269 266 269
304 302 298 295 288 275 266 259 248 240 235 232 225 226 223 216 212 202 194 191 178 171 144 137 133 135 133 135 141 190 171 164 202 197 220 240 262 279 284 287 287 286 295 236 253 275 291 289 227 209 222 228 231 233 236 234 241 254 269 268 269 270 267
295 294 293 286 279 273 261 253 249 246 247 237 235 235 226 221 219 214 200 187 175 158 140 142 139 140 141 146 159 218 160 159 215 229 232 246 249 266 274 282 291 293 295 297 294 287 296 296 300 290 262 252 261 231 218 225 229 231 234 247 258 263 265
288 286 285 282 276 267 261 255 246 242 239 241 236 230 225 222 213 206 192 172 162 144 136 143 141 144 145 151 159 218 166 171 219 225 231 247 253 261 271 270 276 283 289 292 293 302 296 296 296 290 280 276 269 271 271 254 234 227 224 228 242 256 265
283 280 276 272 266 261 255 250 247 242 241 243 239 230 226 217 202 187 172 160 144 133 139 148 144 146 146 150 167 202 184 197 230 238 251 260 260 264 266 270 275 280 287 290 298 299 262 293 293 288 283 278 275 273 268 259 259 279 292 287 274 270 270
285 280 277 273 266 258 253 250 245 242 238 236 234 225 221 207 188 172 160 145 128 129 141 150 144 147 152 158 181 206 185 232 246 245 259 269 269 269 267 268 274 287 288 287 308 46 49 308 290 287 286 284 282 278 273 272 260 235 228 240 253 267 275
284 278 275 270 267 261 253 247 246 237 240 236 230 223 212 192 166 153 142 135 138 140 145 153 154 155 155 169 208 232 232 254 265 272 270 269 271 275 275 250 251 272 276 280 345 74 9 303 289 289 289 288 285 281 277 278 277 261 219 215 230 240 247
284 279 275 272 268 264 255 249 245 242 242 240 229 213 192 169 139 119 112 116 119 125 139 149 154 149 159 174 216 229 261 274 282 282 292 289 286 287 286 275 230 232 262 277 296 295 292 267 278 293 293 289 285 279 279 281 278 278 277 272 256 239 235
275 274 273 272 269 263 259 253 245 242 236 230 213 188 150 138 124 113 113 115 123 130 139 155 160 154 160 176 244 321 312 297 288 293 293 297 300 292 290 287 280 223 218 241 324 277 247 241 270 289 291 284 281 279 283 282 279 284 282 276 273 272 274
274 271 270 270 269 263 254 254 247 229 221 203 169 138 121 114 114 116 116 116 114 122 137 152 148 155 150 147 105 281 280 288 296 304 301 302 292 292 292 294 294 16 120 149 184 207 243 254 270 284 284 277 272 284 299 286 285 290 280 276 272 272 270
271 268 266 267 265 261 256 250 238 220 189 147 136 128 127 127 129 130 133 136 137 136 105 106 147 135 139 140 150 242 274 308 9 308 298 288 289 287 294 297 294 37 53 19 347 317 296 284 277 280 278 276 283 285 279 277 280 278 274 269 268 266 265
265 261 260 262 260 254 241 226 212 192 151 141 142 142 142 139 130 128 132 138 138 127 123 104 125 149 148 164 169 195 211 298 31 276 284 288 293 292 291 297 294 21 341 329 316 307 298 289 283 279 278 276 273 271 270 274 272 269 265 263 261 260 259
263 258 257 254 251 228 194 183 177 156 144 148 147 140 137 129 134 137 139 135 129 128 126 132 123 122 151 169 176 191 198 219 244 271 294 289 289 293 292 300 324 331 311 298 286 280 280 280 283 282 277 274 271 270 273 272 267 262 262 259 257 254 252